Aegean Tiffany — SVAE9 — position and weather

sailwx.info

Track history (hours):
 
Tides and Currents Weather Stations Pressure Air Temp Water Temp Dewpoint Dewpoint Depression Visibility Wind Speed Wind Dir Waves Ship Positions

Aegean Tiffany

Last reported at 2014-Oct-21 01:33 UTC. Time now 2014-Oct-21 02:19 UTC.
Position N 38°02' E 023°32'.

Length 80 m; draft 4.8 m.

Type: Tanker. MMSI: 240870000.

Date/timePositionNaut miles runAvg speedWind from/ knotsBaromVisibWave heightAir tempDewpointWater temp
2014-Oct-21 01:33N 38°02' E 023°32'1 0.8
2014-Oct-21 00:33N 38°02' E 023°31'7 6.6
2014-Oct-20 23:34N 37°58' E 023°25'9 8.3
2014-Oct-20 22:28N 37°55' E 023°14'  
2014-Oct-15 20:33N 37°55' E 023°13'8 7.9
2014-Oct-15 19:34N 37°57' E 023°23'6 6.2
2014-Oct-15 18:33N 38°01' E 023°29'3 0.3
2014-Oct-15 09:16N 38°02' E 023°32'3 3.9
2014-Oct-15 08:33N 38°02' E 023°35'0 0.2
2014-Oct-15 07:33N 38°02' E 023°36'0 0.0
2014-Oct-15 06:33N 38°02' E 023°36'0 0.0
2014-Oct-15 05:34N 38°02' E 023°36'0 0.0
2014-Oct-15 04:34N 38°02' E 023°36'0 0.0
2014-Oct-15 03:34N 38°02' E 023°36'0 0.0
2014-Oct-15 02:34N 38°02' E 023°36'0 0.0
2014-Oct-15 01:34N 38°02' E 023°36'0 0.0
2014-Oct-15 00:33N 38°02' E 023°36'0 0.0
2014-Oct-14 23:33N 38°02' E 023°36'0 0.0
2014-Oct-14 22:33N 38°02' E 023°36'0 0.0
2014-Oct-14 21:34N 38°02' E 023°36'0 0.0
2014-Oct-14 20:34N 38°02' E 023°36'3 2.9
2014-Oct-14 19:33N 38°02' E 023°32'0 0.0
2014-Oct-14 09:34N 38°02' E 023°32'0 0.0
2014-Oct-14 08:34N 38°02' E 023°32'0 0.0
2014-Oct-14 07:34N 38°02' E 023°32'0 0.0
2014-Oct-14 06:33N 38°02' E 023°32'0 0.0
2014-Oct-14 05:33N 38°02' E 023°32'0 0.0
2014-Oct-14 04:33N 38°02' E 023°32'0 0.0
2014-Oct-13 15:19N 38°02' E 023°32'0 0.0
2014-Oct-13 14:33N 38°02' E 023°32'0 0.0
2014-Oct-13 13:33N 38°02' E 023°32'0 0.0
2014-Oct-13 12:33N 38°02' E 023°32'0 0.0
2014-Oct-13 11:32N 38°02' E 023°32'0 0.0
2014-Oct-13 10:33N 38°02' E 023°32'0 0.0
2014-Oct-13 09:33N 38°02' E 023°32'0 0.0
2014-Oct-13 08:33N 38°02' E 023°32'0 0.0
2014-Oct-13 07:33N 38°02' E 023°32'0 0.0
2014-Oct-13 06:33N 38°02' E 023°32'  
Track history (hours):
 
Tides and Currents Weather Stations Pressure Air Temp Water Temp Dewpoint Dewpoint Depression Visibility Wind Speed Wind Dir Waves Ship Positions

Aegean Tiffany

Last reported at 2014-Oct-21 01:33 UTC. Time now 2014-Oct-21 02:19 UTC.
Position N 38°02' E 023°32'.

Length 80 m; draft 4.8 m.

Type: Tanker. MMSI: 240870000.

Date/timePositionNaut miles runAvg speedWind from/ knotsBaromVisibWave heightAir tempDewpointWater temp
2014-Oct-21 01:33N 38°02' E 023°32'1 0.8
2014-Oct-21 00:33N 38°02' E 023°31'7 6.6
2014-Oct-20 23:34N 37°58' E 023°25'9 8.3
2014-Oct-20 22:28N 37°55' E 023°14'  
2014-Oct-15 20:33N 37°55' E 023°13'8 7.9
2014-Oct-15 19:34N 37°57' E 023°23'6 6.2
2014-Oct-15 18:33N 38°01' E 023°29'3 0.3
2014-Oct-15 09:16N 38°02' E 023°32'3 3.9
2014-Oct-15 08:33N 38°02' E 023°35'0 0.2
2014-Oct-15 07:33N 38°02' E 023°36'0 0.0
2014-Oct-15 06:33N 38°02' E 023°36'0 0.0
2014-Oct-15 05:34N 38°02' E 023°36'0 0.0
2014-Oct-15 04:34N 38°02' E 023°36'0 0.0
2014-Oct-15 03:34N 38°02' E 023°36'0 0.0
2014-Oct-15 02:34N 38°02' E 023°36'0 0.0
2014-Oct-15 01:34N 38°02' E 023°36'0 0.0
2014-Oct-15 00:33N 38°02' E 023°36'0 0.0
2014-Oct-14 23:33N 38°02' E 023°36'0 0.0
2014-Oct-14 22:33N 38°02' E 023°36'0 0.0
2014-Oct-14 21:34N 38°02' E 023°36'0 0.0
2014-Oct-14 20:34N 38°02' E 023°36'3 2.9
2014-Oct-14 19:33N 38°02' E 023°32'0 0.0
2014-Oct-14 09:34N 38°02' E 023°32'0 0.0
2014-Oct-14 08:34N 38°02' E 023°32'0 0.0
2014-Oct-14 07:34N 38°02' E 023°32'0 0.0
2014-Oct-14 06:33N 38°02' E 023°32'0 0.0
2014-Oct-14 05:33N 38°02' E 023°32'0 0.0
2014-Oct-14 04:33N 38°02' E 023°32'0 0.0
2014-Oct-13 15:19N 38°02' E 023°32'0 0.0
2014-Oct-13 14:33N 38°02' E 023°32'0 0.0
2014-Oct-13 13:33N 38°02' E 023°32'0 0.0
2014-Oct-13 12:33N 38°02' E 023°32'0 0.0
2014-Oct-13 11:32N 38°02' E 023°32'0 0.0
2014-Oct-13 10:33N 38°02' E 023°32'0 0.0
2014-Oct-13 09:33N 38°02' E 023°32'0 0.0
2014-Oct-13 08:33N 38°02' E 023°32'0 0.0
2014-Oct-13 07:33N 38°02' E 023°32'0 0.0
2014-Oct-13 06:33N 38°02' E 023°32'  

Dump ship's entire track history